sat.trackr.live / text

‹ back to catalog

STARLINK-34003

NORAD 63882 · 2025-094U

PAYLOAD ACTIVE UNKNOWN

§ Identity

Operator
Country
US
Launch date
2025-05-10
Launch site
AFWTR
Launch vehicle
Mass (kg)
RCS (m²)

Purposes: comms

External: N2YO · Heavens-Above · Gunter

§ Orbital elements

Epoch: 2026-09-20T13:17:15.776448Z

Period
93.22 min
Inclination
69.9992°
Eccentricity
0.0003176
Mean motion
15.44775361 rev/d
Perigee alt
429.9 km
Apogee alt
434.2 km
Semi-major
6,810.2 km
B*
6.5567e-4
RAAN
38.5061°
Arg perigee
275.4634°
Mean anomaly
84.6187°
Rev number
7,800

§ Raw data

STARLINK-340031 63882U 25094U   26263.55365482  .00030751  00000+0  65567-3 0  99912 63882  69.9992  38.5061 0003176 275.4634  84.6187 15.44775361 78006

JSON: /api/v1/satellites/63882 · /tle

For live sub-satellite position, see the globe view (requires WebGL).

§ Visibility from observer

Set your observer location to see the next 7 days of passes ≥ 10°. The values pass through the URL so the page stays shareable.

No JS? Fill the form by hand. The geolocation button needs JavaScript.